Skip Page Navigation
NASA JPL Caltech
NASA Logo - Jet Propulsion Laboratory + View the NASA Portal
+ Center for Near-Earth Object Studies
JPL Home Earth Solar System Stars & Galaxies Technology
JPL Solar System Dynamics
BODIES ORBITS EPHEMERIDES TOOLS PHYSICAL DATA DISCOVERY FAQ SITE MAP
JPL Small-Body Database Browser
Search: [ help ]  
71812 (2000 TT67)
Classification: Main-belt Asteroid          SPK-ID: 2071812
Ephemeris | Orbit Diagram | Orbital Elements | Mission Design | Physical Parameters | Discovery Circumstances | Close-Approach Data ]

[ show orbit diagram ]
Orbital Elements at Epoch 2459000.5 (2020-May-31.0) TDB
Reference: JPL 23 (heliocentric ecliptic J2000)
 Element Value Uncertainty (1-sigma)   Units 
e .1214920300900813 3.6131e-08  
a 2.19919181358865 6.9046e-09 au
q 1.932007535598277 7.9259e-08 au
i 1.28813579050343 5.0025e-06 deg
node 317.3811174545646 0.00015789 deg
peri 259.3963701902264 0.00015923 deg
M 176.464860687968 2.1342e-05 deg
tp 2458416.586079433140
(2018-Oct-25.08607943)
7.0048e-05 TDB
period 1191.22306041297
3.26
5.6099e-06
1.536e-08
d
yr
n .3022104020343564 1.4232e-09 deg/d
Q 2.466376091579023 7.7434e-09 au
  Orbit Determination Parameters
   # obs. used (total)      1081  
   data-arc span      7512 days (20.57 yr)  
   first obs. used      1999-05-13  
   last obs. used      2019-12-06  
   planetary ephem.      DE431  
   SB-pert. ephem.      SB431-N16  
   condition code      0  
   norm. resid. RMS      .58877  
   source      ORB  
   producer      Otto Matic  
   solution date      2019-Dec-14 07:18:25  

Additional Information
 Earth MOID = .925243 au 
 Jupiter MOID = 2.50451 au 
 T_jup = 3.656 
[ show covariance matrix ]

Ephemeris | Orbit Diagram | Orbital Elements | Mission Design | Physical Parameters | Discovery Circumstances | Close-Approach Data ]

Physical Parameter Table
Parameter Symbol Value Units Sigma Reference Notes
absolute magnitude H 15.9   n/a MPO337802  

71812 (2000 TT67)          Discovered 2000-Oct-02 by LINEAR at Socorro
Reference: 20031109/Numbers.arcLast Updated: 2004-04-19

[ show close-approach data ]
Alternate Designations
 2000 TT67 = 1999 JQ114 
Ephemeris | Orbit Diagram | Orbital Elements | Mission Design | Physical Parameters | Discovery Circumstances | Close-Approach Data ]
ABOUT SSD CREDITS/AWARDS PRIVACY/COPYRIGHT GLOSSARY LINKS
FirstGov 2020-Oct-25 23:28 UT
(server date/time)  
NASA Home Page
Site Manager:   Ryan S. Park
Webmaster  Alan B. Chamberlin